Terminal Aerodrome Forecast
Issued by NWS Wichita, KS

Home | Current Version | Previous Version | Graphics & Text | Print | Product List | Glossary On
Versions: 1 2 3 4 5 6 7 8 9 10 11 12 13 14 15 16 17 18 19 20 21 22 23 24 25 26 27 28 29 30
000
FTUS43 KICT 200504 AAC
TAFICT
TAF AMD
KICT 200504Z 2005/2024 21004KT 6SM BR SCT010 BKN015
     FM200800 19005KT 3SM BR BKN007
     FM201500 19009KT 4SM BR BKN025
     FM202100 19011KT P6SM SCT050 SCT250=

USA.gov is the U.S. government's official web portal to all federal, state and local government web resources and services.